When you browse on this site, cookies collect data to enhance your experience and personalize the content and advertising you see.
Visit our Privacy Policy to learn more. By continuing to use the site, you agree to this use of cookies and data.
  • In Latvia
  • List of Countries
  • For 7 days
  • Water Temperature
  • Satellite Maps
  • Weather Map
  • Weather Widgets
  • user-avatar
    Login

    Hourly Weather Albany

    Today, 19 July, Friday

    Time Temperature Precipitation Wind Pressure Humidity
    00:00 +21°C° 0 mm 2 mps 757 mmHg 88%
    01:00 +22°C° 0 mm 1 mps 757 mmHg 90%
    02:00 +22°C° 0 mm 1 mps 757 mmHg 91%
    03:00 +22°C° 0 mm 1 mps 756 mmHg 92%
    04:00 +21°C° 0 mm 1 mps 756 mmHg 94%
    05:00 +23°C° 0 mm 1 mps 756 mmHg 91%
    06:00 +24°C° 0 mm 1 mps 756 mmHg 88%
    07:00 +25°C° 0 mm 2 mps 756 mmHg 85%
    08:00 +27°C° 0 mm 2 mps 756 mmHg 77%
    09:00 +30°C° 0 mm 2 mps 756 mmHg 70%
    10:00 +32°C° 0 mm 2 mps 755 mmHg 62%
    11:00 +34°C° 0 mm 2 mps 755 mmHg 58%
    12:00 +35°C° 0 mm 2 mps 755 mmHg 55%
    13:00 +37°C° 0 mm 3 mps 754 mmHg 51%
    14:00 +37°C° 0 mm 3 mps 754 mmHg 50%
    15:00 +37°C° 0 mm 3 mps 754 mmHg 49%
    16:00 +38°C° 0 mm 3 mps 753 mmHg 48%
    17:00 +35°C° 0.2 mm 3 mps 753 mmHg 58%
    18:00 +32°C° 0.2 mm 2 mps 754 mmHg 67%
    19:00 +30°C° 0.2 mm 2 mps 754 mmHg 77%
    20:00 +29°C° 0 mm 2 mps 754 mmHg 78%
    21:00 +29°C° 0 mm 2 mps 754 mmHg 80%
    22:00 +28°C° 0 mm 1 mps 755 mmHg 82%
    23:00 +28°C° 0.3 mm 1 mps 754 mmHg 84%

    Tomorrow, 20 July, Saturday

    Time Temperature Precipitation Wind Pressure Humidity
    00:00 +27°C° 0.3 mm 1 mps 754 mmHg 85%
    01:00 +27°C° 0.3 mm 1 mps 754 mmHg 86%
    02:00 +27°C° 0.2 mm 1 mps 754 mmHg 88%
    03:00 +26°C° 0.2 mm 1 mps 754 mmHg 90%
    04:00 +26°C° 0.2 mm 1 mps 754 mmHg 92%
    05:00 +27°C° 0 mm 1 mps 754 mmHg 89%
    06:00 +28°C° 0 mm 2 mps 755 mmHg 87%
    07:00 +29°C° 0 mm 2 mps 755 mmHg 84%
    08:00 +30°C° 0 mm 2 mps 755 mmHg 76%
    09:00 +32°C° 0 mm 2 mps 755 mmHg 67%
    10:00 +34°C° 0 mm 2 mps 755 mmHg 58%
    11:00 +36°C° 0 mm 2 mps 755 mmHg 52%
    12:00 +37°C° 0 mm 3 mps 754 mmHg 47%
    13:00 +38°C° 0 mm 3 mps 754 mmHg 42%
    14:00 +38°C° 0 mm 3 mps 754 mmHg 43%
    15:00 +38°C° 0 mm 3 mps 754 mmHg 44%
    16:00 +38°C° 0 mm 3 mps 754 mmHg 45%
    17:00 +36°C° 0.1 mm 3 mps 754 mmHg 54%
    18:00 +34°C° 0.1 mm 3 mps 754 mmHg 63%
    19:00 +31°C° 0.1 mm 3 mps 754 mmHg 71%
    20:00 +31°C° 0 mm 2 mps 754 mmHg 74%
    21:00 +30°C° 0 mm 2 mps 754 mmHg 77%
    22:00 +29°C° 0 mm 1 mps 754 mmHg 80%
    23:00 +28°C° 0 mm 1 mps 754 mmHg 81%

    Day after tomorrow, 21 July, Sunday

    Time Temperature Precipitation Wind Pressure Humidity
    00:00 +28°C° 0 mm 1 mps 754 mmHg 82%
    01:00 +27°C° 0 mm 1 mps 753 mmHg 83%
    02:00 +25°C° 0 mm 0 mps 753 mmHg 84%
    03:00 +25°C° 0 mm 0 mps 753 mmHg 85%
    04:00 +24°C° 0 mm 0 mps 753 mmHg 86%
    05:00 +27°C° 0 mm 1 mps 753 mmHg 83%
    06:00 +28°C° 0 mm 1 mps 753 mmHg 81%
    07:00 +29°C° 0 mm 1 mps 754 mmHg 79%
    08:00 +31°C° 0 mm 2 mps 753 mmHg 74%
    09:00 +32°C° 0 mm 2 mps 753 mmHg 68%
    10:00 +35°C° 0 mm 2 mps 753 mmHg 62%
    11:00 +36°C° 0.3 mm 3 mps 753 mmHg 60%
    12:00 +37°C° 0.3 mm 3 mps 752 mmHg 58%
    13:00 +38°C° 0.3 mm 4 mps 752 mmHg 56%
    14:00 +37°C° 0.4 mm 4 mps 752 mmHg 56%
    15:00 +37°C° 0.4 mm 4 mps 752 mmHg 57%
    16:00 +36°C° 0.4 mm 4 mps 752 mmHg 57%
    17:00 +34°C° 0.2 mm 4 mps 752 mmHg 65%
    18:00 +33°C° 0.2 mm 3 mps 753 mmHg 73%
    19:00 +30°C° 0.2 mm 2 mps 753 mmHg 81%
    20:00 +29°C° 0.6 mm 2 mps 753 mmHg 83%
    21:00 +28°C° 0.6 mm 2 mps 753 mmHg 85%
    22:00 +27°C° 0.6 mm 2 mps 753 mmHg 88%
    23:00 +27°C° 0.1 mm 2 mps 753 mmHg 87%

    22 July, Monday

    Time Temperature Precipitation Wind Pressure Humidity
    00:00 +26°C° 0.1 mm 2 mps 753 mmHg 87%
    01:00 +25°C° 0.1 mm 2 mps 753 mmHg 87%
    02:00 +25°C° 0 mm 2 mps 753 mmHg 86%
    03:00 +24°C° 0 mm 1 mps 753 mmHg 84%
    04:00 +23°C° 0 mm 1 mps 753 mmHg 82%
    05:00 +23°C° 0 mm 1 mps 754 mmHg 82%
    06:00 +23°C° 0 mm 1 mps 754 mmHg 81%
    07:00 +24°C° 0 mm 2 mps 754 mmHg 81%
    08:00 +23°C° 0.5 mm 1 mps 754 mmHg 85%
    09:00 +22°C° 0.5 mm 1 mps 755 mmHg 88%
    10:00 +22°C° 0.5 mm 1 mps 755 mmHg 91%
    11:00 +22°C° 0.1 mm 1 mps 755 mmHg 88%
    12:00 +23°C° 0.1 mm 1 mps 755 mmHg 84%
    13:00 +23°C° 0.1 mm 2 mps 755 mmHg 80%
    14:00 +23°C° 0.1 mm 1 mps 755 mmHg 82%
    15:00 +22°C° 0.1 mm 1 mps 755 mmHg 85%
    16:00 +20°C° 0.1 mm 0 mps 755 mmHg 87%
    17:00 +20°C° 0 mm 0 mps 755 mmHg 87%
    18:00 +20°C° 0 mm 0 mps 755 mmHg 88%
    19:00 +20°C° 0 mm 0 mps 755 mmHg 88%
    20:00 +19°C° 0 mm 0 mps 755 mmHg 89%
    21:00 +19°C° 0 mm 0 mps 756 mmHg 89%
    22:00 +19°C° 0 mm 0 mps 756 mmHg 90%
    23:00 +21°C° 0 mm 1 mps 756 mmHg 88%

    23 July, Tuesday

    Time Temperature Precipitation Wind Pressure Humidity
    00:00 +20°C° 0 mm 1 mps 756 mmHg 87%
    01:00 +20°C° 0 mm 1 mps 756 mmHg 85%
    02:00 +20°C° 0 mm 1 mps 756 mmHg 85%
    03:00 +20°C° 0 mm 1 mps 756 mmHg 85%
    04:00 +19°C° 0 mm 1 mps 757 mmHg 85%
    05:00 +20°C° 0 mm 1 mps 757 mmHg 82%
    06:00 +19°C° 0 mm 2 mps 758 mmHg 79%
    07:00 +20°C° 0 mm 2 mps 758 mmHg 76%
    08:00 +23°C° 0 mm 2 mps 758 mmHg 66%
    09:00 +25°C° 0 mm 2 mps 758 mmHg 56%
    10:00 +26°C° 0 mm 3 mps 758 mmHg 46%
    11:00 +27°C° 0 mm 2 mps 758 mmHg 43%
    12:00 +28°C° 0 mm 2 mps 758 mmHg 40%
    13:00 +28°C° 0 mm 2 mps 758 mmHg 37%
    14:00 +28°C° 0 mm 1 mps 758 mmHg 38%
    15:00 +28°C° 0 mm 1 mps 758 mmHg 39%
    16:00 +29°C° 0 mm 1 mps 758 mmHg 40%
    17:00 +27°C° 0 mm 1 mps 758 mmHg 47%
    18:00 +25°C° 0 mm 1 mps 758 mmHg 54%
    19:00 +23°C° 0 mm 1 mps 759 mmHg 62%
    20:00 +23°C° 0 mm 1 mps 759 mmHg 63%
    21:00 +22°C° 0 mm 1 mps 759 mmHg 64%
    22:00 +21°C° 0 mm 1 mps 759 mmHg 65%
    23:00 +20°C° 0 mm 1 mps 759 mmHg 66%

    24 July, Wednesday

    Time Temperature Precipitation Wind Pressure Humidity
    00:00 +19°C° 0 mm 1 mps 759 mmHg 68%
    01:00 +18°C° 0 mm 1 mps 759 mmHg 69%
    02:00 +16°C° 0 mm 0 mps 759 mmHg 70%
    03:00 +16°C° 0 mm 0 mps 760 mmHg 70%
    04:00 +15°C° 0 mm 0 mps 760 mmHg 71%
    05:00 +16°C° 0 mm 0 mps 760 mmHg 68%
    06:00 +18°C° 0 mm 0 mps 760 mmHg 65%
    07:00 +19°C° 0 mm 0 mps 760 mmHg 62%
    08:00 +22°C° 0 mm 0 mps 760 mmHg 56%
    09:00 +24°C° 0 mm 0 mps 760 mmHg 49%
    10:00 +28°C° 0 mm 1 mps 760 mmHg 43%
    11:00 +29°C° 0 mm 1 mps 760 mmHg 40%
    12:00 +30°C° 0 mm 1 mps 760 mmHg 37%
    13:00 +31°C° 0 mm 2 mps 760 mmHg 35%
    14:00 +30°C° 0 mm 2 mps 759 mmHg 37%
    15:00 +30°C° 0 mm 2 mps 759 mmHg 39%
    16:00 +30°C° 0 mm 2 mps 759 mmHg 42%
    17:00 +28°C° 0 mm 1 mps 759 mmHg 50%
    18:00 +27°C° 0 mm 1 mps 759 mmHg 58%
    19:00 +25°C° 0 mm 1 mps 760 mmHg 66%
    20:00 +24°C° 0 mm 1 mps 760 mmHg 69%
    21:00 +22°C° 0 mm 1 mps 760 mmHg 72%
    22:00 +21°C° 0 mm 1 mps 760 mmHg 75%
    23:00 +19°C° 0 mm 0 mps 760 mmHg 78%
    Show more